Regional Weather Roundup
Issued by NWS

Home | Current Version | Previous Version | Text Only | Print | Product List | Glossary Off
Versions: 1 2 3 4 5 6 7 8 9 10 11 12 13 14 15 16 17 18 19 20 21 22 23 24 25 26 27 28 29 30 31 32 33 34 35 36 37 38 39 40 41 42 43 44 45 46 47 48 49 50

000
ASUS43 KFSD 290602
RWRSD

WEATHER ROUNDUP FOR SOUTH DAKOTA
NATIONAL WEATHER SERVICE SIOUX FALLS SD
100 AM CDT MON AUG 29 2016

NOTE: "FAIR" INDICATES FEW OR NO CLOUDS BELOW 12,000 FEET WITH NO
SIGNIFICANT WEATHER AND/OR OBSTRUCTIONS TO VISIBILITY.


SDZ001>005-009-010-012>017-290700-
NORTHWEST AND NORTH CENTRAL SOUTH DAKOTA

CITY           SKY/WX    TMP DP  RH WIND       PRES   REMARKS
FAITH            N/A     72  50  45 NW3       30.05R
MOBRIDGE       CLEAR     68  57  68 SE3       29.96S
$$

SDZ012>016-024>037-041>051-057-063-072>074-290700-
SOUTHWEST AND SOUTH CENTRAL SOUTH DAKOTA

CITY           SKY/WX    TMP DP  RH WIND       PRES   REMARKS
RAPID CTY ARPT CLEAR     60  50  69 N3        30.07S
PIERRE         CLEAR     77  60  55 S15G24    29.98S
CUSTER         CLEAR     62  39  42 NW7       30.25S
ELLSWORTH AFB  CLEAR     70  52  52 N2        30.07F
PHILIP         CLEAR     63  60  90 CALM      30.03R
PINE RIDGE     PTCLDY    71  58  63 S12       30.10S
WINNER         FAIR      77  63  61 S17       30.06R
$$

SDZ004>011-016>023-039-040-290700-
NORTHEAST SOUTH DAKOTA

CITY           SKY/WX    TMP DP  RH WIND       PRES   REMARKS
ABERDEEN       CLEAR     74  67  78 S8        30.00R
WATERTOWN      FAIR      74  70  87 S10       30.06R
BROOKINGS        N/A    N/A N/A N/A MISG        N/A
$$

SDZ017-020-022-023-036>040-048>070-290700-
SOUTHEAST SOUTH DAKOTA

CITY           SKY/WX    TMP DP  RH WIND       PRES   REMARKS
SIOUX FALLS    FAIR      73  32  22 S9        30.10S
HURON          CLEAR     77  71  82 S13       30.02S
CHAMBERLAIN    CLEAR     77  65  68 S10       30.05R
MITCHELL       CLEAR     77  70  79 S13       30.04F
YANKTON        FAIR      72  64  78 SE6       30.08R
$$

ABBREVIATIONS USED IN REMARKS
   TC - TEMPERATURE IN CELSIUS
  WCI - WIND CHILL INDEX
   HX - HEAT INDEX
  VSB - VISIBILITY





USA.gov is the U.S. government's official web portal to all federal, state and local government web resources and services.